Home   Weather   Atlanta   Past weeks
Flag for USA

Past Weather in Atlanta, Georgia, USA — December 2018

Now
74 °F

Clear.


Feels Like: 72 °F
Forecast: 89 / 75 °F
Wind: No wind

Location: Fulton County Airport-Brown Field

Current Time: Jul 18, 2019 at 3:37:18 am

Latest Report: Jul 18, 2019 at 2:53 am


Visibility: 10 mi

Pressure: 30.03 "Hg

Humidity: 91%

Dew Point: 71 °F

Location of AtlantaLocation

December 2018 Weather in Atlanta — Graph

°F

High & Low Weather Summary for December 2018

 TemperatureHumidityPressure
High73 °F (Dec 2, 2:53 pm)100% (Dec 1, 6:21 am)30.47 "Hg (Dec 1, 6:21 am)
Low25 °F (Dec 6, 7:53 am)23% (Dec 18, 1:53 pm)29.25 "Hg (Dec 21, 4:53 am)
Average47 °F84%30.08 "Hg
* Reported Dec 1 12:53 am — Dec 31 11:53 pm, Atlanta. Weather by CustomWeather, © 2019

Note: Actual official high and low records may vary slightly from our data, if they occured in-between our weather recording intervals... More about our weather records

Advertising

Atlanta Weather History for December 1, 2018

Scroll right to see more
 ConditionsComfort  
Time TempWeatherWind HumidityBarometerVisibility
12:53 am
Sat, Dec 1
54 °FPassing clouds.No wind90%30.01 "Hg10 mi
1:53 am51 °FClear.No wind96%29.98 "Hg10 mi
2:53 am50 °FPassing clouds.No wind96%29.98 "Hg10 mi
3:53 am57 °FPassing clouds.7 mph67%29.95 "Hg10 mi
4:53 am56 °FLight rain. Mostly cloudy.3 mph75%29.93 "Hg10 mi
5:53 am53 °FLight rain. Mostly cloudy.3 mph86%29.93 "Hg10 mi
6:21 am51 °FLight rain. Mostly cloudy.5 mph100%29.94 "Hg8 mi
6:53 am51 °FRain. Fog.7 mph96%29.92 "Hg5 mi
7:53 am52 °FRain. Fog.7 mph97%29.93 "Hg4 mi
9:00 am52 °FLight rain. Low clouds.8 mph100%29.99 "Hg8 mi
9:15 am52 °FThundershowers. Fog.5 mph100%29.95 "Hg4 mi
9:30 am52 °FHeavy rain. Fog.8 mph100%29.92 "Hg4 mi
9:53 am53 °FRain. Fog.9 mph100%29.89 "Hg4 mi
11:00 am55 °FHeavy rain. Fog.7 mph100%29.86 "Hg2 mi
11:18 am55 °FRain. Fog.6 mph100%29.86 "Hg3 mi
11:33 am55 °FHeavy rain. Fog.10 mph100%29.85 "Hg2 mi
11:53 am55 °FHeavy rain. Fog.6 mph100%29.84 "Hg1 mi
12:13 pm56 °FRain. Fog.5 mph100%29.84 "Hg2 mi
12:36 pm56 °FRain. Fog.5 mph100%29.83 "Hg2 mi
12:44 pm56 °FLight rain. Fog.5 mph100%29.82 "Hg3 mi
1:00 pm56 °FLight rain. Fog.5 mph100%29.82 "Hg3 mi
1:12 pm57 °FLight rain. Fog.6 mph100%29.81 "Hg6 mi
2:00 pm57 °FLight rain. Fog.6 mph100%29.79 "Hg4 mi
2:19 pm57 °FLight rain. Fog.6 mph100%29.78 "Hg4 mi
3:00 pm58 °FMostly cloudy.7 mph100%29.76 "Hg10 mi
3:53 pm58 °FFog.5 mph100%29.74 "Hg5 mi
4:29 pm58 °FLight rain. Fog.3 mph100%29.76 "Hg2 mi
4:53 pm58 °FLight rain. Fog.3 mph100%29.75 "Hg2 mi
6:00 pm58 °FFog.5 mph100%29.76 "Hg4 mi
6:23 pm58 °FFog.5 mph100%29.76 "Hg3 mi
6:53 pm58 °FFog.5 mph100%29.74 "Hg3 mi
7:53 pm58 °FFog.5 mph100%29.74 "Hg4 mi
8:53 pm58 °FFog.5 mph100%29.74 "Hg6 mi
9:05 pm59 °FFog.3 mph100%29.75 "Hg1 mi
9:53 pm60 °FFog.3 mph100%29.72 "Hg2 mi
10:58 pm61 °FLow clouds.6 mph100%29.75 "Hg8 mi
11:53 pm62 °FFog.6 mph100%29.71 "Hg6 mi
Weather by CustomWeather, © 2019

See weather overview